Theta_e
284 286 287 286 285 286 286 287 283 287 287 292 295 297 299 306 309 314 317 319 320 320 321 323 322 323 323 322 322 322 323 322 321 321 322 322 322 320 321 323 323 325 323 321
283 287 287 285 287 288 288 289 288 289 288 295 298 301 303 311 313 315 317 319 320 321 322 322 322 322 322 321 320 323 323 322 321 322 323 322 322 321 322 324 325 324 320 319
279 285 286 283 286 288 289 291 290 285 290 298 301 302 306 311 313 316 318 319 320 321 322 322 322 322 320 319 320 322 323 324 323 323 323 322 322 321 322 324 322 318 317 317
280 283 276 287 295 293 291 292 293 295 301 302 306 306 313 315 313 315 318 319 320 322 322 322 321 320 318 319 322 323 324 324 323 323 323 322 321 319 318 317 317 316 315 314
279 280 285 289 291 291 291 292 299 299 300 303 306 310 309 317 318 316 316 320 321 322 322 321 318 317 318 320 322 323 324 324 324 323 322 322 319 317 317 317 316 314 314 313
283 279 277 286 291 295 296 288 298 299 300 301 303 300 303 314 319 319 320 321 321 322 321 320 317 317 319 319 321 322 324 324 324 323 323 321 319 317 317 318 318 316 313 313
281 280 285 289 292 296 286 288 298 299 301 302 303 306 310 314 317 319 320 321 321 321 319 318 316 317 317 320 320 323 324 324 323 323 322 321 319 318 317 318 319 316 313 312
284 282 278 291 292 292 294 299 299 301 302 301 308 309 311 316 318 320 320 320 321 319 318 315 317 317 315 318 321 322 324 323 322 321 324 322 319 317 318 317 316 315 314 313
284 284 289 290 294 301 302 300 299 301 303 302 308 308 310 313 315 320 319 321 321 319 315 316 317 317 314 316 318 322 322 321 321 322 323 322 319 317 316 318 319 318 315 316
288 291 293 296 300 301 301 301 302 304 304 305 308 309 310 312 315 321 320 318 317 316 315 315 315 316 317 313 319 322 321 321 322 322 320 321 321 319 317 315 316 319 316 316
290 293 294 297 298 300 301 302 302 305 305 308 309 309 311 313 316 319 322 320 317 316 316 316 315 315 314 316 321 321 321 322 323 321 321 319 320 317 319 318 317 318 318 319
287 294 294 295 299 302 301 301 303 305 307 309 309 309 311 313 317 317 319 323 319 318 317 316 316 315 314 319 322 321 321 322 323 322 320 319 316 310 297 302 305 305 306 312
294 298 297 298 301 304 302 304 306 307 307 306 308 308 310 313 315 315 319 319 321 320 319 319 317 316 316 320 322 322 322 322 322 320 321 317 315 315 313 306 297 297 297 300
298 299 297 299 299 304 304 306 307 306 307 308 308 309 309 311 315 317 318 320 322 322 321 320 319 318 317 321 322 322 322 309 323 323 322 317 316 316 316 312 312 309 298 300
299 301 301 302 304 302 303 304 303 303 304 305 308 308 309 308 310 314 319 319 318 317 319 321 320 320 319 322 322 321 322 321 323 322 322 316 315 313 313 312 315 312 306 301
297 300 299 299 299 299 299 301 301 301 303 304 305 305 306 308 309 312 317 317 312 310 312 312 315 321 322 320 321 321 321 311 315 322 318 316 312 311 310 310 314 314 314 312
293 294 297 297 297 298 298 299 300 301 301 302 303 304 304 306 307 306 308 309 310 310 308 310 309 314 325 321 321 322 321 316 308 321 320 319 316 313 312 310 311 313 316 310
295 296 299 299 297 296 297 298 298 298 299 301 302 301 301 301 302 304 304 306 307 307 307 308 308 310 313 312 320 321 321 319 316 321 321 320 319 317 314 312 312 312 312 308
297 298 302 301 298 296 297 297 297 298 298 299 300 299 299 300 301 304 303 302 301 301 301 307 300 305 310 304 306 319 321 320 318 319 320 310 312 318 317 315 314 313 312 310
298 299 300 299 298 297 296 297 297 298 297 297 298 298 297 297 299 301 302 299 298 297 300 303 305 306 308 308 301 320 320 320 318 318 316 315 317 318 318 307 315 315 313 312
300 300 298 298 297 297 296 296 295 295 297 297 295 296 294 295 297 297 296 296 297 295 298 297 300 299 306 305 312 316 321 320 318 316 315 313 313 315 316 317 317 317 316 314
299 299 298 298 297 296 296 295 295 295 295 295 295 296 294 293 294 295 294 292 295 288 295 296 296 290 296 298 314 315 317 321 321 319 317 315 313 314 313 314 315 317 318 316
298 299 299 297 296 296 296 295 294 294 293 293 293 293 293 293 293 291 290 291 293 291 294 294 289 288 291 306 305 303 306 308 310 310 311 316 317 316 316 314 314 314 313 314
299 299 298 297 296 295 293 294 294 293 293 294 293 293 292 292 291 293 293 290 288 290 292 289 290 288 293 300 299 298 298 299 301 304 304 299 308 310 310 312 312 314 315 313
299 298 296 295 293 292 292 293 293 293 292 291 292 292 292 292 291 291 293 292 288 291 292 289 288 290 295 295 295 295 294 294 295 297 298 299 300 304 304 305 306 306 307 307
298 298 296 295 294 292 292 290 290 291 290 289 290 291 291 291 291 291 292 290 291 289 290 290 290 292 292 292 292 292 292 292 293 293 293 294 295 296 298 300 301 302 303 303
300 296 296 295 294 293 292 290 289 288 289 288 288 290 291 291 290 290 289 290 290 290 289 289 289 288 290 290 291 291 291 291 289 291 291 291 292 293 294 295 295 296 296 297
Wind_Speed
8 12 13 14 13 15 13 7 7 10 13 13 13 15 15 18 10 10 11 11 14 12 11 11 10 9 8 7 7 7 8 7 7 6 6 6 6 6 6 5 5 5 6 5
11 12 15 17 16 17 19 15 15 16 22 18 14 9 14 15 12 14 14 13 15 14 13 13 12 10 9 8 7 7 7 6 6 6 6 6 6 6 5 5 6 6 5 5
7 9 11 15 23 20 20 15 9 15 11 10 13 14 11 9 2 9 14 15 17 16 14 13 12 11 10 8 6 7 7 7 7 6 6 5 5 5 6 6 7 6 5 5
6 7 9 6 10 15 19 14 12 10 9 12 12 11 6 5 3 2 9 11 12 14 13 12 10 9 7 7 8 7 6 8 7 6 6 5 6 5 5 5 6 5 5 5
3 3 6 6 8 5 4 3 6 4 12 9 15 7 6 5 2 1 1 9 8 12 13 11 10 8 9 8 8 7 8 8 8 7 7 6 6 6 4 5 5 4 4 5
3 4 4 3 9 11 12 6 9 12 14 13 14 4 6 3 2 4 4 7 10 9 11 12 9 10 10 8 8 8 7 9 7 7 7 6 6 6 3 4 5 4 5 4
8 5 3 5 15 11 8 1 12 14 15 16 6 5 9 8 5 6 4 5 8 9 12 13 10 11 10 9 10 9 6 7 7 7 7 7 6 3 5 5 6 5 5 4
3 3 3 11 13 1 3 6 10 13 14 15 12 9 5 6 6 6 4 8 11 10 10 8 12 12 10 11 9 7 8 8 7 7 6 5 7 4 5 6 6 5 5 4
2 2 6 9 14 3 9 6 11 14 17 18 11 7 9 8 11 1 9 11 12 12 9 9 11 11 12 9 8 8 8 7 7 6 6 6 6 6 5 5 6 5 5 3
6 4 10 11 8 11 13 14 15 17 17 17 5 11 10 9 8 3 9 9 8 11 12 10 8 9 12 8 9 10 9 8 7 7 6 5 4 4 5 4 5 6 5 4
5 4 10 5 14 10 13 15 20 19 18 7 11 13 7 6 7 7 4 7 6 9 11 12 9 8 7 10 10 9 9 8 7 5 6 5 4 3 4 3 5 6 6 6
4 12 7 12 12 13 8 13 21 15 2 10 14 12 10 8 9 6 9 3 8 7 7 8 8 8 7 10 11 11 9 7 7 7 5 4 4 3 8 3 7 6 8 6
4 9 10 14 10 8 4 12 17 14 16 13 13 8 10 11 12 12 13 3 6 6 10 10 9 9 7 9 11 12 11 9 6 7 6 6 4 5 4 2 7 3 6 10
6 6 6 5 7 11 8 7 15 15 15 16 15 14 13 9 11 11 8 8 9 3 8 10 11 11 10 10 10 11 10 13 9 8 7 5 5 5 4 4 4 3 5 3
11 8 5 7 8 11 10 9 11 15 17 19 14 14 13 14 13 12 12 13 12 14 12 3 7 5 8 11 10 10 8 8 7 7 7 7 5 4 4 4 3 4 3 4
8 6 8 11 11 12 12 14 13 14 15 14 14 16 14 11 10 11 12 15 17 15 14 12 9 5 7 10 10 7 8 13 10 7 5 6 5 5 4 4 4 4 4 4
5 8 7 9 8 10 10 9 9 9 9 11 11 11 12 12 14 14 14 13 13 13 14 14 13 11 4 9 10 8 6 6 8 7 7 7 7 7 6 5 5 5 5 6
2 2 4 5 6 8 9 9 9 9 9 9 9 12 13 14 11 11 12 12 13 14 16 16 16 11 9 8 3 6 7 9 7 8 7 7 7 7 6 7 6 6 4 4
4 5 6 7 6 7 8 9 8 9 10 9 9 10 9 10 10 10 11 14 16 14 16 17 21 12 10 12 6 3 6 8 10 8 8 8 5 7 8 8 7 7 6 6
3 5 6 5 7 7 10 11 12 10 11 10 8 9 10 11 11 11 9 13 12 7 10 14 14 11 11 13 13 4 4 6 8 8 6 7 8 8 7 8 9 8 8 8
3 3 5 6 6 6 7 8 10 10 11 10 9 9 9 9 10 12 11 8 13 15 12 14 11 9 9 8 8 6 5 3 5 5 5 6 6 6 8 8 9 8 8 8
2 3 5 6 6 6 6 6 7 7 10 12 12 10 9 11 10 7 11 10 8 11 10 9 10 13 9 9 10 11 12 11 9 2 1 3 4 6 7 5 5 7 7 7
4 5 5 5 6 5 5 6 6 6 8 11 11 11 10 8 7 7 7 12 8 9 10 11 15 15 13 12 12 12 12 13 12 11 10 9 9 6 4 3 2 3 4 5
6 5 5 6 6 5 7 4 6 8 7 11 13 12 10 5 7 6 5 7 9 9 11 12 13 13 13 11 13 12 11 13 12 11 11 12 10 9 10 10 10 9 9 8
6 5 6 6 6 4 5 4 5 6 6 7 10 11 12 9 7 7 6 8 11 11 11 15 14 15 12 12 12 12 12 11 11 10 11 10 11 10 10 10 10 9 9 9
7 5 5 6 5 5 4 3 4 3 4 6 8 8 8 9 9 9 8 11 12 13 12 11 12 11 12 12 12 12 12 12 12 12 11 11 11 10 10 11 11 10 10 10
4 5 5 4 4 5 4 4 4 5 4 4 7 7 8 9 9 10 10 11 11 11 11 10 11 12 11 12 12 12 11 11 13 11 11 11 11 10 11 10 10 9 10 10
Wind_Direction
254 261 266 265 263 263 245 231 221 285 293 289 305 298 299 299 248 164 158 174 149 148 152 151 150 148 153 154 148 148 148 152 167 161 155 150 148 146 146 165 152 130 127 117
284 256 249 255 247 249 251 247 255 263 274 273 270 286 307 313 177 169 162 179 151 154 156 157 158 160 159 163 162 152 154 157 138 145 145 151 151 139 165 146 122 115 120 124
249 278 287 266 229 225 236 230 221 249 259 289 300 293 297 322 307 186 164 177 160 161 161 161 163 165 165 169 147 155 144 149 145 147 144 158 140 139 149 140 121 123 132 124
284 289 245 271 38 204 230 237 229 235 282 300 302 273 228 241 71 169 171 171 176 162 159 159 153 163 148 147 152 151 145 150 147 147 141 145 141 137 124 128 129 134 139 125
247 239 277 282 44 11 353 211 54 299 298 335 326 308 256 222 106 137 226 164 196 169 159 152 153 154 152 151 147 148 155 158 158 151 143 144 146 145 132 125 118 127 135 137
220 268 298 47 328 326 316 225 14 339 336 331 323 224 238 227 191 248 105 188 167 183 155 153 152 149 149 153 149 162 169 162 157 146 147 152 147 145 131 126 126 125 129 135
242 255 260 355 317 303 210 301 328 328 326 317 288 243 285 263 201 219 176 220 152 169 167 166 147 150 158 155 169 182 143 140 141 148 147 145 135 134 135 129 120 122 124 117
303 299 342 1 329 14 345 325 321 339 327 307 298 276 318 318 310 245 201 181 165 164 175 152 153 156 159 171 177 149 140 140 138 139 142 137 137 125 130 130 125 126 120 107
302 311 248 272 290 26 25 332 339 317 315 313 292 351 341 332 321 274 167 174 165 171 154 156 157 163 164 181 149 145 136 141 139 137 132 139 136 135 126 132 142 142 139 149
316 209 329 307 329 27 4 341 327 313 309 300 305 10 349 346 326 108 141 139 143 156 160 155 160 165 176 150 156 148 140 141 140 141 134 132 121 140 144 149 147 159 165 175
277 327 330 350 349 350 350 335 321 309 282 232 49 15 334 349 17 37 95 104 116 160 163 166 158 163 152 150 153 148 148 150 149 138 140 141 122 145 162 179 166 167 178 179
307 328 320 309 313 331 326 313 285 288 157 74 63 16 356 27 34 39 54 87 153 146 137 148 159 157 151 156 151 147 146 152 157 149 141 145 145 119 34 54 167 168 158 151
298 301 279 276 280 313 316 296 312 19 35 48 42 47 16 20 20 40 33 339 71 190 174 162 163 158 156 162 155 157 157 159 152 148 150 155 158 166 174 40 70 195 180 169
318 317 306 327 333 330 8 6 344 19 30 37 29 23 14 44 50 44 13 26 28 11 174 177 172 173 156 158 162 164 163 159 162 164 160 156 175 187 162 174 186 168 57 133
346 339 328 318 6 16 8 21 27 22 19 22 16 26 20 30 25 25 26 30 37 43 39 129 181 170 147 157 161 161 159 167 169 168 168 169 170 174 178 167 198 132 112 70
325 337 14 27 19 16 11 17 28 27 27 27 12 17 9 14 30 33 34 37 37 27 20 31 34 349 164 158 156 160 170 172 168 169 152 154 161 168 167 174 165 166 165 146
342 0 9 29 26 21 18 19 26 34 26 34 22 12 19 26 39 32 29 25 42 29 18 16 7 346 218 162 161 166 163 159 171 167 166 179 176 181 182 166 173 176 197 171
338 344 29 43 14 27 29 27 35 36 25 26 30 30 23 22 14 29 23 26 29 25 15 5 360 350 30 28 146 163 160 163 173 183 178 178 185 182 180 179 184 186 190 161
7 349 21 48 31 8 22 17 22 37 37 33 45 45 29 19 3 28 32 35 32 17 353 353 342 351 14 15 0 167 164 167 182 186 184 178 177 186 185 186 188 194 178 160
340 347 26 44 46 22 31 20 15 18 35 34 39 46 43 26 8 25 33 48 31 2 329 357 349 345 360 10 2 10 181 183 183 192 175 178 184 192 193 195 195 195 189 184
232 357 35 32 67 53 38 20 23 13 22 36 46 50 46 34 30 28 26 27 4 357 358 3 2 349 340 6 16 13 7 190 170 180 179 180 175 195 207 199 201 199 197 198
183 105 72 61 74 47 53 45 30 24 30 36 36 43 49 48 35 39 35 21 351 354 12 15 3 343 338 16 34 24 26 31 39 27 287 204 188 200 204 204 210 217 211 205
150 129 105 89 102 90 67 36 29 39 33 43 39 36 51 55 40 30 18 360 5 11 24 11 351 354 11 33 40 31 29 31 34 34 27 31 39 23 17 317 276 270 232 215
137 131 112 106 104 93 80 57 52 49 37 55 49 44 43 38 53 42 39 15 10 31 38 9 4 9 35 34 41 37 28 33 26 31 35 29 32 32 34 26 22 16 21 14
134 119 116 118 106 96 101 91 88 72 48 39 46 50 52 49 45 41 32 39 30 41 41 21 20 30 39 40 40 39 34 29 27 29 32 28 29 27 26 26 20 16 24 20
160 167 136 142 140 132 115 94 91 72 74 56 54 55 52 52 50 52 42 43 45 42 44 34 27 35 39 41 43 40 38 30 27 31 27 30 29 27 23 22 22 13 14 14
132 120 117 108 122 128 114 100 100 88 73 66 73 57 60 54 47 51 42 48 50 48 46 43 38 37 39 40 41 40 38 36 33 29 28 26 23 22 23 20 18 18 17 17